Rome, NY

12:45 PM EDT on June 26, 2017 (GMT -0400)
Griffiss

Weather History for KRME - June, 2013

Change the Weather History Date:

Wednesday, June 5, 2013

  Actual Average Record
Temperature  
Mean Temperature 57 °F -  
Max Temperature 72 °F 71 °F 84 °F (1986)
Min Temperature 43 °F 49 °F 38 °F (1990)
Degree Days  
Heating Degree Days 8    
Growing Degree Days 7 (Base 50)    
Moisture  
Dew Point 43 °F    
Average Humidity 60    
Maximum Humidity 93    
Minimum Humidity 36    
Precipitation  
Precipitation 0.00 in - - ()
Sea Level Pressure  
Sea Level Pressure 30.16 in    
Wind  
Wind Speed 3 mph (NE)    
Max Wind Speed 9 mph    
Max Gust Speed -    
Visibility 10 miles    
Events      
Averages and records for this station are not official NWS values.
T = Trace of Precipitation, MM = Missing Value Source: NWS Daily Summary

Daily Weather History Graph

Daily Weather History Graph

Search for Another Location

Airport or City:

Trip Planner

Search our weather history database for the weather conditions in past years. The results will help you decide how hot, cold, wet, or windy it might be!

Date:

Astronomy

Jun. 05, 2013 Rise Set
Actual Time 5:22 AM EDT 8:38 PM EDT
Civil Twilight 4:47 AM EDT 9:13 PM EDT
Nautical Twilight 4:02 AM EDT 9:58 PM EDT
Astronomical Twilight 3:07 AM EDT 10:53 PM EDT
Moon 3:29 AM EDT (6/5) 5:58 PM EDT (6/5)
Length of Visible Light 16h 25m
Length of Day
15h 15m
Waning Crescent, 8% of the Moon is Illuminated
Jun 5
Waning Crescent
Jun 8
New
Jun 16
First Quarter
Jun 23
Full
Jun 30
Last Quarter

Hourly Weather History & Observations

Time (EDT) Temp. Windchill Dew Point Humidity Pressure Visibility Wind Dir Wind Speed Gust Speed Precip Events Conditions
12:53 AM 46.0 °F - 42.1 °F 86% 30.17 in 10.0 mi Calm Calm - N/A   Clear
1:53 AM 46.9 °F - 42.1 °F 83% 30.17 in 10.0 mi ESE 4.6 mph - N/A   Clear
2:53 AM 46.9 °F - 42.1 °F 83% 30.18 in 10.0 mi NNE 3.5 mph - N/A   Clear
3:53 AM 44.1 °F 42.5 °F 42.1 °F 93% 30.18 in 10.0 mi ESE 3.5 mph - N/A   Clear
4:53 AM 45.0 °F - 42.1 °F 90% 30.18 in 10.0 mi Calm Calm - N/A   Clear
5:53 AM 43.0 °F 41.3 °F 39.9 °F 89% 30.20 in 10.0 mi ENE 3.5 mph - N/A   Clear
6:53 AM 46.0 °F - 42.1 °F 86% 30.22 in 10.0 mi Calm Calm - N/A   Clear
7:53 AM 52.0 °F - 45.0 °F 77% 30.23 in 10.0 mi East 4.6 mph - N/A   Clear
8:53 AM 57.0 °F - 44.1 °F 62% 30.23 in 10.0 mi Calm Calm - N/A   Clear
9:53 AM 61.0 °F - 44.1 °F 54% 30.22 in 10.0 mi Calm Calm - N/A   Clear
10:53 AM 64.0 °F - 45.0 °F 50% 30.21 in 10.0 mi SSW 4.6 mph - N/A   Clear
11:53 AM 68.0 °F - 42.1 °F 39% 30.20 in 10.0 mi Calm Calm - N/A   Clear
12:53 PM 68.0 °F - 44.1 °F 42% 30.19 in 10.0 mi WSW 6.9 mph - N/A   Partly Cloudy
1:53 PM 68.0 °F - 42.1 °F 39% 30.16 in 10.0 mi NNW 3.5 mph - N/A   Clear
2:53 PM 70.0 °F - 42.1 °F 36% 30.14 in 10.0 mi Calm Calm - N/A   Clear
3:53 PM 71.1 °F - 46.0 °F 41% 30.13 in 10.0 mi NNW 6.9 mph - N/A   Clear
4:53 PM 70.0 °F - 45.0 °F 41% 30.12 in 10.0 mi Calm Calm - N/A   Clear
5:53 PM 71.1 °F - 46.0 °F 41% 30.12 in 10.0 mi NNW 4.6 mph - N/A   Clear
6:53 PM 71.1 °F - 44.1 °F 38% 30.11 in 10.0 mi Variable 3.5 mph - N/A   Clear
7:53 PM 66.9 °F - 48.0 °F 51% 30.11 in 10.0 mi North 6.9 mph - N/A   Partly Cloudy
8:53 PM 62.1 °F - 42.1 °F 48% 30.10 in 10.0 mi NNE 9.2 mph - N/A   Partly Cloudy
9:53 PM 61.0 °F - 43.0 °F 52% 30.12 in 10.0 mi NE 6.9 mph - N/A   Clear
10:53 PM 60.1 °F - 43.0 °F 53% 30.12 in 10.0 mi ESE 3.5 mph - N/A   Clear
11:53 PM 57.9 °F - 44.1 °F 60% 30.11 in 10.0 mi SSE 4.6 mph - N/A   Clear